[[{"header":{"parameterUnit":"m.s-1","parameterCategory":1,"la1":30.2991,"la2":30.254,"lo1":-89.0895,"lo2":-89.0444,"dy":0.0017,"dx":0.0017,"nx":28,"ny":28,"refTime":"2025-01-23T09:00:00:Z","depth":0,"parameterNumber":2,"parameterNumberName":"U-component_of_WINDS"},"data":[0,0,0,0,0,0,0,0,0,0,0,0,0,0,0,0,0,0,0,0,0,0,0,0,0,0,0,0,0,0,0,0,0,0,0,0,0,0,0,0,0,0,0,0,0,0,0,0,0,0,0,0,0,0,0,0,0,0,4.3048,4.3048,0,4.3116,4.3116,4.3117,4.3117,4.3116,4.3116,4.3115,4.3186,4.3189,4.3192,0,0,0,0,0,0,0,0,0,0,0,0,0,4.292,4.2923,4.3048,4.3048,4.3049,4.3116,4.3117,4.3117,4.3117,4.3116,4.3115,4.3114,4.3185,4.3189,4.3192,0,0,0,0,0,0,0,0,0,0,0,0,0,4.2981,4.2924,4.3047,4.3057,4.3059,4.3115,4.3117,4.3118,4.3118,4.3116,4.3115,4.3114,4.3184,4.3188,4.3192,4.3244,0,0,4.3205,4.3207,0,0,0,0,0,0,0,0,4.2977,4.2986,4.3055,4.3057,4.3058,4.3107,4.3098,4.316,4.3118,4.3095,4.3115,4.3113,4.3161,4.3167,4.3183,4.3247,4.3251,4.3205,4.3208,4.3209,4.3211,0,0,0,0,0,0,0,4.2973,4.2983,4.3075,4.3056,4.3058,4.3059,4.3066,4.311,4.3135,4.3097,4.3097,4.3105,4.3162,4.3179,4.3184,4.3252,4.3205,4.3209,4.3211,4.3213,4.3365,4.3367,0,0,0,0,0,0,4.2967,4.2979,4.3072,4.3077,4.3014,4.3063,4.3071,4.3093,4.3134,4.3139,4.3106,4.3105,4.3172,4.3179,4.3187,4.3252,4.3209,4.3213,4.3216,4.3364,4.3366,4.3367,0,0,0,0,0,0,4.2964,4.2975,4.307,4.3028,4.304,4.3066,4.3091,4.3095,4.3112,4.3141,4.3146,4.3119,4.3172,4.3181,4.323,4.3254,4.3215,4.3219,4.3362,4.3364,4.3366,4.3382,0,0,0,0,0,0,4.296,4.2974,4.2993,4.3028,4.3042,4.3111,4.3092,4.3097,4.3118,4.3117,4.3154,4.3159,4.3171,4.3224,4.3234,4.3259,4.3222,4.336,4.3363,4.3366,4.3379,4.3384,4.3389,0,0,0,0,0,4.2956,4.2995,4.2994,4.3005,4.3067,4.3112,4.3121,4.3133,4.312,4.3141,4.316,4.3158,4.325,4.3229,4.3241,4.3267,4.3358,4.3362,4.3365,4.3377,4.3383,4.3389,0,0,0,0,0,0,4.2962,4.2999,4.2999,4.305,4.3078,4.3112,4.3138,4.3139,4.3171,4.3169,4.3184,4.3192,4.3242,4.3259,4.3236,4.3321,4.3303,4.3309,4.3308,4.3314,4.3319,4.3314,4.3225,0,0,0,0,0,4.2969,4.3002,4.3034,4.3076,4.309,4.3112,4.3132,4.3139,4.3169,4.3181,4.3204,4.3233,4.3269,4.3292,4.3327,4.3382,4.3391,4.3406,4.3411,4.3414,4.342,4.3452,4.346,4.3379,4.3379,4.3379,0,0,4.2984,4.3009,4.3029,4.3078,4.31,4.3136,4.3121,4.3159,4.3186,4.3187,4.3235,4.3253,4.3287,4.334,4.3365,4.3356,4.3444,4.3419,4.3422,4.3425,4.3457,4.3464,4.3471,4.3382,4.3381,4.3381,0,0,4.3031,4.3052,4.309,4.3113,4.3148,4.3162,4.3171,4.3206,4.3218,4.3267,4.3269,4.3301,4.3362,4.3387,4.3407,4.3465,4.3466,4.3476,4.3501,4.3533,4.3539,4.3545,4.3567,4.3575,4.3481,4.3481,4.3481,0,4.3046,4.3098,4.311,4.3149,4.3171,4.3173,4.3213,4.3235,4.3279,4.3295,4.3285,4.3363,4.3385,4.3445,4.346,4.3476,4.3488,4.3472,4.3537,4.3543,4.3549,4.357,4.3578,4.3482,4.3482,4.3482,4.3482,0,4.3116,4.3153,4.318,4.3222,4.3247,4.3286,4.3305,4.333,4.3335,4.3351,4.3402,4.343,4.3471,4.3486,4.3491,4.3547,4.3541,4.3534,4.3516,4.3557,4.3578,4.3586,4.3484,4.3484,4.3483,4.3483,0,0,4.3168,4.3217,4.3227,4.3247,4.3286,4.3315,4.3355,4.3395,4.3416,4.3447,4.3482,4.3534,4.3528,4.3552,4.356,4.3588,4.3634,4.3578,4.3579,4.3589,4.37,4.3706,4.3715,4.3634,4.3636,4.3637,4.3697,0,4.3219,4.3289,4.3302,4.3364,4.3399,4.3403,4.3438,4.3466,4.3482,4.3516,4.3534,4.3571,4.356,4.3575,4.3602,4.3623,4.3657,4.3619,4.3669,4.367,4.3661,4.3725,4.3731,4.3787,4.3705,4.3707,4.3708,0,4.3289,4.3321,4.3387,4.3422,4.3438,4.3469,4.3507,4.3538,4.3571,4.3582,4.3608,4.3614,4.3658,4.3637,4.3698,4.3672,4.3693,4.3707,4.3709,4.3715,4.3692,4.3734,4.3804,4.3813,4.372,4.3719,4.3718,0,4.3322,4.3382,4.343,4.3447,4.3489,4.3511,4.353,4.3561,4.3585,4.3619,4.3635,4.3674,4.3696,4.3726,4.3743,4.3726,4.3803,4.3784,4.3814,4.3814,4.3831,4.383,4.3907,4.3843,4.3843,4.3842,4.3842,0,4.3379,4.3419,4.3445,4.3475,4.352,4.3535,4.3581,4.3599,4.3628,4.3662,4.3667,4.3699,4.3719,4.3754,4.3768,4.3817,4.3826,4.3837,4.384,4.3837,4.3836,4.3852,4.3849,4.3845,4.3844,4.3844,4.3843,0,4.3424,4.3443,4.3495,4.3531,4.3541,4.3574,4.3605,4.3635,4.3651,4.3694,4.3705,4.3732,4.3774,4.3794,4.3846,4.3855,4.3912,4.3912,4.3901,4.3902,4.3932,4.393,4.4023,4.4037,4.3962,4.3963,4.3963,0,4.346,4.3491,4.3531,4.3554,4.3573,4.361,4.3635,4.3651,4.3677,4.3717,4.3742,4.3784,4.3819,4.3886,4.3911,4.3952,4.3954,4.3984,4.396,4.3956,4.3956,4.3954,4.3959,4.3988,4.3989,4.3989,4.399,0,4.3522,4.3531,4.3565,4.3604,4.3633,4.3664,4.3695,4.3714,4.3735,4.3764,4.3807,4.3834,4.3887,4.393,4.3972,4.3993,4.3996,4.3997,4.4007,4.4004,4.3997,4.4003,4.3914,4.3995,4.3995,4.3994,4.3994,4.3994,4.3565,4.3594,4.3627,4.3666,4.3691,4.372,4.3749,4.377,4.3806,4.385,4.3858,4.3904,4.3938,4.3996,4.4018,4.4055,4.4048,4.4062,4.4065,4.4069,4.4071,4.399,4.4063,4.4063,4.4063,4.4062,4.4062,0,4.3629,4.3651,4.3686,4.3729,4.3761,4.376,4.3794,4.3821,4.3861,4.3892,4.3927,4.3977,4.4019,4.4047,4.409,4.4114,4.4117,4.4125,4.4124,4.4129,4.4074,4.4062,4.4122,4.4122,4.4122,4.4122,4.4122,4.4122,4.3666,4.3715,4.3727,4.3789,4.3811,4.3856,4.3876,4.3903,4.3928,4.3984,4.4019,4.4036,4.4067,4.4112,4.4151,4.4159,4.4175,4.4183,4.4191,4.4139,4.4133,4.4127,4.4116,4.4186,4.4187,4.4243,4.4244,4.4244]},{"header":{"parameterUnit":"m.s-1","parameterCategory":1,"la1":30.2991,"la2":30.254,"lo1":-89.0895,"lo2":-89.0444,"dy":0.0017,"dx":0.0017,"nx":28,"ny":28,"refTime":"2025-01-23T09:00:00:Z","depth":0,"parameterNumber":3,"parameterNumberName":"V-component_of_WINDS"},"data":[0,0,0,0,0,0,0,0,0,0,0,0,0,0,0,0,0,0,0,0,0,0,0,0,0,0,0,0,0,0,0,0,0,0,0,0,0,0,0,0,0,0,0,0,0,0,0,0,0,0,0,0,0,0,0,0,0,0,-2.8594,-2.8593,0,-2.8549,-2.8549,-2.8548,-2.851,-2.851,-2.851,-2.8509,-2.8461,-2.846,-2.8459,0,0,0,0,0,0,0,0,0,0,0,0,0,-2.8645,-2.8645,-2.8594,-2.8593,-2.8593,-2.8549,-2.8549,-2.8548,-2.851,-2.851,-2.8509,-2.8509,-2.8461,-2.846,-2.8459,0,0,0,0,0,0,0,0,0,0,0,0,0,-2.8614,-2.8644,-2.8594,-2.8569,-2.8566,-2.855,-2.8549,-2.8548,-2.8511,-2.851,-2.8509,-2.8509,-2.8461,-2.846,-2.8459,-2.8463,0,0,-2.8455,-2.8454,0,0,0,0,0,0,0,0,-2.8616,-2.8612,-2.8573,-2.8571,-2.8568,-2.8535,-2.8549,-2.8519,-2.8511,-2.8532,-2.8509,-2.8508,-2.8486,-2.8482,-2.8475,-2.846,-2.8458,-2.8455,-2.8454,-2.8453,-2.8453,0,0,0,0,0,0,0,-2.8618,-2.8614,-2.8576,-2.8573,-2.8569,-2.8559,-2.8554,-2.8543,-2.8513,-2.853,-2.8527,-2.8522,-2.8484,-2.8477,-2.8474,-2.8458,-2.8455,-2.8453,-2.8453,-2.8452,-2.8445,-2.8446,0,0,0,0,0,0,-2.8624,-2.8616,-2.8578,-2.8575,-2.8591,-2.8559,-2.8553,-2.8546,-2.8513,-2.8507,-2.8523,-2.8521,-2.8479,-2.8475,-2.8472,-2.8475,-2.8453,-2.8452,-2.8451,-2.8445,-2.8445,-2.8446,0,0,0,0,0,0,-2.8626,-2.8621,-2.8579,-2.8595,-2.8589,-2.8559,-2.8551,-2.8545,-2.8538,-2.8507,-2.8502,-2.8521,-2.8479,-2.8474,-2.8466,-2.8473,-2.8451,-2.845,-2.8444,-2.8445,-2.8446,-2.8481,0,0,0,0,0,0,-2.8627,-2.8622,-2.8623,-2.8595,-2.8588,-2.8574,-2.8551,-2.8545,-2.8536,-2.8533,-2.8504,-2.8499,-2.8478,-2.8468,-2.8465,-2.8471,-2.8449,-2.8443,-2.8444,-2.8446,-2.8479,-2.8483,-2.8487,0,0,0,0,0,-2.8629,-2.8634,-2.8624,-2.8619,-2.8589,-2.8575,-2.8571,-2.8547,-2.8537,-2.8538,-2.8519,-2.85,-2.8473,-2.8468,-2.8463,-2.8469,-2.8443,-2.8444,-2.8445,-2.8478,-2.8483,-2.8487,0,0,0,0,0,0,-2.8663,-2.863,-2.8618,-2.8614,-2.8598,-2.8569,-2.8569,-2.8553,-2.8539,-2.8536,-2.8507,-2.8501,-2.8496,-2.8482,-2.8476,-2.8472,-2.8455,-2.8456,-2.8481,-2.8486,-2.849,-2.8493,-2.8448,0,0,0,0,0,-2.867,-2.8662,-2.8633,-2.8632,-2.8625,-2.8599,-2.8592,-2.8575,-2.8557,-2.8549,-2.8529,-2.8512,-2.85,-2.8492,-2.8479,-2.8477,-2.8471,-2.8479,-2.8483,-2.8486,-2.8487,-2.8486,-2.849,-2.8451,-2.8451,-2.8451,0,0,-2.8684,-2.8665,-2.8661,-2.8639,-2.8624,-2.8616,-2.8593,-2.8585,-2.8579,-2.8548,-2.854,-2.8525,-2.8503,-2.8499,-2.8496,-2.8486,-2.8497,-2.8488,-2.8491,-2.849,-2.8488,-2.8492,-2.8495,-2.8452,-2.8452,-2.8452,0,0,-2.8706,-2.8691,-2.8689,-2.8676,-2.8655,-2.8637,-2.8637,-2.8611,-2.86,-2.8592,-2.8569,-2.8561,-2.854,-2.8526,-2.8516,-2.8535,-2.8517,-2.8532,-2.8551,-2.855,-2.8554,-2.8556,-2.8563,-2.8566,-2.8532,-2.8533,-2.8533,0,-2.8726,-2.8713,-2.869,-2.8684,-2.8675,-2.8648,-2.8647,-2.8634,-2.861,-2.8604,-2.8594,-2.8569,-2.8552,-2.8545,-2.855,-2.8543,-2.8542,-2.8534,-2.8555,-2.8558,-2.856,-2.8566,-2.8569,-2.8534,-2.8534,-2.8534,-2.8534,0,-2.8739,-2.8731,-2.8732,-2.8711,-2.8702,-2.8698,-2.8674,-2.8668,-2.8653,-2.8637,-2.8629,-2.8609,-2.8592,-2.8589,-2.8573,-2.858,-2.8575,-2.8561,-2.8543,-2.8566,-2.8571,-2.8574,-2.8537,-2.8536,-2.8536,-2.8535,0,0,-2.8779,-2.8747,-2.8747,-2.8738,-2.8714,-2.8707,-2.8703,-2.8687,-2.8683,-2.8667,-2.8663,-2.8647,-2.8634,-2.8623,-2.8606,-2.8606,-2.8623,-2.8592,-2.8591,-2.8599,-2.863,-2.8641,-2.8644,-2.8612,-2.8612,-2.8613,-2.8632,0,-2.8797,-2.8788,-2.8768,-2.8765,-2.8758,-2.8733,-2.8729,-2.8714,-2.8699,-2.8691,-2.8674,-2.8664,-2.8647,-2.8641,-2.864,-2.8622,-2.8629,-2.862,-2.8607,-2.8607,-2.8613,-2.8647,-2.8658,-2.8677,-2.8634,-2.8634,-2.8635,0,-2.8816,-2.8804,-2.8801,-2.8779,-2.8775,-2.8772,-2.8757,-2.875,-2.8732,-2.8721,-2.8711,-2.8692,-2.8686,-2.8671,-2.8662,-2.8657,-2.865,-2.8641,-2.8641,-2.8639,-2.8622,-2.8646,-2.8683,-2.8686,-2.8638,-2.8638,-2.8637,0,-2.8847,-2.8829,-2.8826,-2.8818,-2.8792,-2.8791,-2.878,-2.8762,-2.8755,-2.8741,-2.8736,-2.8723,-2.8715,-2.8704,-2.8683,-2.8674,-2.8677,-2.866,-2.8668,-2.8669,-2.8669,-2.8669,-2.8706,-2.8666,-2.8666,-2.8665,-2.8665,0,-2.8869,-2.8868,-2.8839,-2.8837,-2.8835,-2.8812,-2.8811,-2.8798,-2.8783,-2.8777,-2.8755,-2.875,-2.8723,-2.8715,-2.8698,-2.8694,-2.869,-2.8682,-2.8677,-2.8683,-2.8685,-2.8679,-2.8677,-2.8666,-2.8666,-2.8666,-2.8666,0,-2.8902,-2.8882,-2.8877,-2.8853,-2.8848,-2.8848,-2.8828,-2.8824,-2.8809,-2.8803,-2.88,-2.8776,-2.8766,-2.8744,-2.8727,-2.8716,-2.8716,-2.8708,-2.8722,-2.8719,-2.8729,-2.8728,-2.8762,-2.8766,-2.8724,-2.8724,-2.8725,0,-2.8917,-2.8916,-2.8893,-2.8889,-2.8879,-2.8872,-2.8865,-2.8842,-2.8836,-2.8817,-2.8817,-2.8805,-2.8794,-2.8779,-2.876,-2.8748,-2.8739,-2.8752,-2.8737,-2.8744,-2.874,-2.874,-2.874,-2.8755,-2.8756,-2.8756,-2.8756,0,-2.8946,-2.8937,-2.8928,-2.8917,-2.891,-2.8899,-2.8887,-2.8885,-2.8859,-2.8853,-2.8843,-2.8836,-2.882,-2.8809,-2.8794,-2.8782,-2.8765,-2.8762,-2.8763,-2.8769,-2.8778,-2.8774,-2.8731,-2.8761,-2.876,-2.876,-2.876,-2.876,-2.8971,-2.8969,-2.8954,-2.8945,-2.8934,-2.8924,-2.8921,-2.8906,-2.8898,-2.8884,-2.8871,-2.8863,-2.8847,-2.8825,-2.8815,-2.8808,-2.8799,-2.8801,-2.8801,-2.8802,-2.8805,-2.878,-2.8805,-2.8805,-2.8805,-2.8804,-2.8804,0,-2.8999,-2.8989,-2.8981,-2.8966,-2.896,-2.8946,-2.8933,-2.8928,-2.8921,-2.8908,-2.8899,-2.8888,-2.8878,-2.8859,-2.8847,-2.8845,-2.8837,-2.8843,-2.8842,-2.884,-2.8813,-2.8814,-2.8849,-2.8849,-2.8849,-2.8849,-2.8849,-2.8849,-2.9013,-2.9011,-2.9,-2.8992,-2.8981,-2.8974,-2.8968,-2.8959,-2.8948,-2.8938,-2.893,-2.8918,-2.8902,-2.8889,-2.8879,-2.8874,-2.887,-2.8879,-2.8871,-2.8846,-2.8842,-2.8838,-2.8838,-2.8878,-2.8878,-2.8898,-2.8898,-2.8898]}]]